,,10070,10270,13070,13570,15070,16070,
,, West, West, West, West, West, West,
,, SO2, H2S, ET, RH, WS, WD,
,, Ave, Ave, Ave, Ave, Ave, Ave,
,,,,,,,,
,,,,,,,,
,,BC,BC,BC,BC,BC,Raw,
1,2015/12/01 00:00:00,0.458,0.021,-8.844,M,6.86,229.047,
2,2015/12/01 01:00:00,Z,Z,-9.238,M,4.361,254.033,
3,2015/12/01 02:00:00,0.408,0.023,-11.201,M,1.88,263.856,
4,2015/12/01 03:00:00,0.381,0.024,-10.458,M,7.53,261.645,
5,2015/12/01 04:00:00,0.29,0.021,-12.575,M,6.516,230.252,
6,2015/12/01 05:00:00,0.099,0.021,-12.841,M,6.247,219.585,
7,2015/12/01 06:00:00,0.312,0.022,-11.342,M,5.545,222.125,
8,2015/12/01 07:00:00,0.584,0.022,-11.771,M,6.95,220.635,
9,2015/12/01 08:00:00,0.939,0.044,-11.027,M,6.397,235.89,
10,2015/12/01 09:00:00,0.888,0.031,-10.99,M,4.992,244.407,
11,2015/12/01 10:00:00,1.045,0.022,-8.916,M,3.757,223.162,
12,2015/12/01 11:00:00,1.346,0.022,-4.645,M,3.848,235.01,
13,2015/12/01 12:00:00,1.187,0.021,-2.175,M,4.477,201.123,
14,2015/12/01 13:00:00,1.24,0.023,-1.937,M,6.748,210.35,
15,2015/12/01 14:00:00,0.896,0.023,-2.451,M,9.944,187.489,
16,2015/12/01 15:00:00,0.937,0.022,-2.512,M,8.961,224.538,
17,2015/12/01 16:00:00,0.966,0.023,-2.986,M,5.802,246.231,
18,2015/12/01 17:00:00,1.194,0.02,-4.398,M,9.51,242.962,
19,2015/12/01 18:00:00,0.947,0.022,-4.953,M,12.634,269.639,
20,2015/12/01 19:00:00,0.859,0.02,-5.399,M,12.175,277.936,
21,2015/12/01 20:00:00,0.833,0.018,-5.7,M,13.547,280.721,
22,2015/12/01 21:00:00,0.705,0.02,-5.772,M,14.228,280.105,
23,2015/12/01 22:00:00,0.618,0.021,-5.581,M,12.891,281.837,
24,2015/12/01 23:00:00,0.717,0.022,-5.277,M,10.295,276.658,
25,2015/12/02 00:00:00,0.584,0.022,-5.114,M,10.553,272.575,
26,2015/12/02 01:00:00,Z,Z,-4.534,M,11.552,275.548,
27,2015/12/02 02:00:00,0.831,0.02,-5.153,M,6.665,262.918,
28,2015/12/02 03:00:00,0.734,0.021,-5.1,M,7.708,260.616,
29,2015/12/02 04:00:00,0.705,0.02,-6.444,M,6.627,223.23,
30,2015/12/02 05:00:00,0.645,0.021,-8.077,M,7.64,202.195,
31,2015/12/02 06:00:00,0.648,0.021,-8.704,M,7.671,207.524,
32,2015/12/02 07:00:00,0.464,0.021,-10.024,M,7.795,193.348,
33,2015/12/02 08:00:00,0.612,0.02,-9.644,M,10.319,187.669,
34,2015/12/02 09:00:00,0.835,0.021,-7.731,M,12.321,186.961,
35,2015/12/02 10:00:00,1.157,0.022,-6.239,M,12.694,181.873,
36,2015/12/02 11:00:00,1.48,0.022,-4.69,M,15.563,189.054,
37,2015/12/02 12:00:00,1.3,0.023,-3.655,M,9.854,193.613,
38,2015/12/02 13:00:00,0.978,0.022,-1.808,M,8.423,241.538,
39,2015/12/02 14:00:00,0.84,0.022,0.482,M,13.378,270.149,
40,2015/12/02 15:00:00,0.711,0.022,1.911,M,13.722,285.361,
41,2015/12/02 16:00:00,0.555,0.022,2.478,M,13.178,269.341,
42,2015/12/02 17:00:00,0.276,0.022,0.976,M,10.274,252.877,
43,2015/12/02 18:00:00,0.335,0.022,0.772,M,13.492,249.276,
44,2015/12/02 19:00:00,0.525,0.024,0.365,M,13.209,246.117,
45,2015/12/02 20:00:00,0.394,0.021,-1.138,M,11.623,243.825,
46,2015/12/02 21:00:00,0.511,0.023,-0.739,M,11.564,235.58,
47,2015/12/02 22:00:00,0.546,0.022,-0.322,M,14.282,236.52,
48,2015/12/02 23:00:00,0.216,0.022,-0.369,M,12.317,233.414,
49,2015/12/03 00:00:00,0.524,0.023,-0.099,M,12.365,239.104,
50,2015/12/03 01:00:00,Z,Z,-0.759,M,10.436,239.737,
51,2015/12/03 02:00:00,0.459,0.019,-1.738,M,10.288,234.125,
52,2015/12/03 03:00:00,0.208,0.021,-2.06,M,9.88,225.596,
53,2015/12/03 04:00:00,0.232,0.023,-2.578,M,9.288,221.738,
54,2015/12/03 05:00:00,-0.124,0.024,-4.828,M,7.1,188.439,
55,2015/12/03 06:00:00,0.229,0.023,-4.42,M,10.87,194.446,
56,2015/12/03 07:00:00,0.376,0.023,-4.097,M,14.566,188.745,
57,2015/12/03 08:00:00,0.29,0.024,-3.97,M,16.36,187.616,
58,2015/12/03 09:00:00,0.147,0.024,-4.138,M,16.47,182.146,
59,2015/12/03 10:00:00,0.111,0.023,-3.262,M,18.279,186.981,
60,2015/12/03 11:00:00,0.165,0.022,-3.077,M,19.589,177.118,
61,2015/12/03 12:00:00,0.217,0.022,-1.738,M,19.036,175.823,
62,2015/12/03 13:00:00,0.226,0.023,1.172,M,21.709,180.19,
63,2015/12/03 14:00:00,0.116,0.025,1.524,M,17.8,165.735,
64,2015/12/03 15:00:00,0.163,0.024,1.224,M,19.431,164.967,
65,2015/12/03 16:00:00,0.161,0.025,0.734,M,13.123,159.408,
66,2015/12/03 17:00:00,0.22,0.027,0.339,M,11.071,112.231,
67,2015/12/03 18:00:00,0.079,0.022,0.497,M,13.951,145.754,
68,2015/12/03 19:00:00,0.095,0.145,-0.403,M,10.441,146.687,
69,2015/12/03 20:00:00,0.113,0.022,-1.1,M,10.318,173.05,
70,2015/12/03 21:00:00,0.062,0.023,-0.296,M,11.607,184.671,
71,2015/12/03 22:00:00,0.133,0.023,0.95,M,12.682,194.57,
72,2015/12/03 23:00:00,0.249,0.023,1.584,M,12.773,198.19,
73,2015/12/04 00:00:00,0.353,0.022,1.583,M,13.426,188.342,
74,2015/12/04 01:00:00,Z,Z,1.973,M,14.691,189.33,
75,2015/12/04 02:00:00,0.432,0.022,2.093,M,11.982,187.355,
76,2015/12/04 03:00:00,0.453,0.022,1.733,M,8.259,169.687,
77,2015/12/04 04:00:00,0.441,0.021,1.751,M,13.403,184.423,
78,2015/12/04 05:00:00,0.486,0.022,2.61,M,14.25,204.315,
79,2015/12/04 06:00:00,0.426,0.021,2.226,M,11.513,201.643,
80,2015/12/04 07:00:00,0.249,0.022,2.335,M,14.261,201.412,
81,2015/12/04 08:00:00,0.269,0.023,2.531,M,14.561,203.278,
82,2015/12/04 09:00:00,0.427,0.022,2.946,M,12.8,216.705,
83,2015/12/04 10:00:00,0.23,0.021,3.892,M,13.594,214.613,
84,2015/12/04 11:00:00,0.306,0.021,4.548,M,11.869,234.986,
85,2015/12/04 12:00:00,1.162,0.046,5.126,M,22.882,298.495,
86,2015/12/04 13:00:00,1.224,0.018,4.523,M,29.87,317.579,
87,2015/12/04 14:00:00,0.212,0.017,4.449,M,22.715,328.881,
88,2015/12/04 15:00:00,0.72,0.02,4.46,M,16.633,321.087,
89,2015/12/04 16:00:00,1.201,0.021,4.281,M,19.254,316.728,
90,2015/12/04 17:00:00,1.514,0.087,3.123,M,13.81,315.305,
91,2015/12/04 18:00:00,0.421,0.032,2.44,M,11.812,294.655,
92,2015/12/04 19:00:00,0.501,0.023,1.184,M,9.935,267.112,
93,2015/12/04 20:00:00,0.11,0.023,0.359,M,11.0,253.175,
94,2015/12/04 21:00:00,0.198,0.025,-0.691,M,10.968,243.382,
95,2015/12/04 22:00:00,0.13,0.025,-0.703,M,13.048,237.257,
96,2015/12/04 23:00:00,0.318,0.022,-0.811,M,12.459,232.439,
97,2015/12/05 00:00:00,0.371,0.022,-1.492,M,10.846,222.771,
98,2015/12/05 01:00:00,Z,Z,-1.26,M,10.871,224.312,
99,2015/12/05 02:00:00,0.335,0.022,-0.911,M,12.973,237.073,
100,2015/12/05 03:00:00,0.093,0.022,-0.978,M,11.976,240.708,
101,2015/12/05 04:00:00,0.019,0.021,-1.237,M,13.516,236.833,
102,2015/12/05 05:00:00,0.185,0.022,-1.582,M,12.161,239.146,
103,2015/12/05 06:00:00,0.109,0.023,-1.544,M,12.083,240.672,
104,2015/12/05 07:00:00,0.026,0.021,-2.274,M,11.969,238.53,
105,2015/12/05 08:00:00,0.07,0.022,-2.245,M,12.811,244.603,
106,2015/12/05 09:00:00,0.008,0.022,-2.157,M,13.699,251.973,
107,2015/12/05 10:00:00,0.21,0.021,-0.831,M,12.631,258.844,
108,2015/12/05 11:00:00,0.375,0.021,0.599,M,12.739,258.643,
109,2015/12/05 12:00:00,0.661,0.02,2.015,M,12.485,255.72,
110,2015/12/05 13:00:00,0.625,0.022,2.529,M,12.514,254.526,
111,2015/12/05 14:00:00,0.574,0.021,3.34,M,9.023,238.096,
112,2015/12/05 15:00:00,0.503,0.02,2.523,M,7.988,226.575,
113,2015/12/05 16:00:00,0.448,0.02,0.524,M,7.318,203.877,
114,2015/12/05 17:00:00,0.279,0.022,-1.377,M,8.672,203.145,
115,2015/12/05 18:00:00,0.094,0.021,-2.798,M,7.185,194.679,
116,2015/12/05 19:00:00,0.108,0.022,-2.881,M,11.105,187.575,
117,2015/12/05 20:00:00,0.095,0.021,-3.704,M,12.221,184.1,
118,2015/12/05 21:00:00,0.234,0.022,-3.876,M,11.519,185.922,
119,2015/12/05 22:00:00,0.173,0.02,-3.664,M,11.835,184.345,
120,2015/12/05 23:00:00,0.072,0.019,-4.641,M,8.721,169.469,
121,2015/12/06 00:00:00,-0.199,0.02,-5.377,M,6.369,166.289,
122,2015/12/06 01:00:00,Z,Z,-5.76,M,5.707,161.659,
123,2015/12/06 02:00:00,-0.012,0.019,-5.092,M,8.256,156.24,
124,2015/12/06 03:00:00,-0.039,0.018,-5.989,M,7.053,150.488,
125,2015/12/06 04:00:00,-0.175,0.019,-6.624,M,7.355,142.537,
126,2015/12/06 05:00:00,0.012,0.019,-5.688,M,11.019,145.277,
127,2015/12/06 06:00:00,0.072,0.019,-5.605,M,10.643,135.048,
128,2015/12/06 07:00:00,0.14,0.02,-5.737,M,10.421,131.395,
129,2015/12/06 08:00:00,0.024,0.078,-6.389,M,8.503,133.216,
130,2015/12/06 09:00:00,-0.276,0.019,-6.748,M,7.707,141.728,
131,2015/12/06 10:00:00,-0.112,0.016,-5.89,M,6.113,167.678,
132,2015/12/06 11:00:00,0.01,0.019,-4.209,M,3.433,157.139,
133,2015/12/06 12:00:00,0.238,0.019,-2.181,M,6.485,194.569,
134,2015/12/06 13:00:00,0.215,0.017,-1.599,M,1.205,146.935,
135,2015/12/06 14:00:00,0.169,0.017,-0.691,M,2.221,170.506,
136,2015/12/06 15:00:00,0.138,0.017,-1.204,M,3.081,159.67,
137,2015/12/06 16:00:00,0.295,0.02,-2.193,M,0.864,347.624,
138,2015/12/06 17:00:00,0.252,0.052,-3.35,M,0.956,109.273,
139,2015/12/06 18:00:00,0.682,0.364,-3.99,M,3.65,280.194,
140,2015/12/06 19:00:00,0.305,0.023,-3.291,M,5.636,285.42,
141,2015/12/06 20:00:00,0.088,0.013,-3.68,M,10.17,282.924,
142,2015/12/06 21:00:00,0.22,0.015,-4.407,M,5.501,267.883,
143,2015/12/06 22:00:00,0.069,0.016,-4.785,M,7.685,269.628,
144,2015/12/06 23:00:00,-0.136,0.017,-5.332,M,4.254,293.425,
145,2015/12/07 00:00:00,0.187,0.02,-6.401,M,2.482,287.618,
146,2015/12/07 01:00:00,Z,Z,-5.87,M,5.601,254.128,
147,2015/12/07 02:00:00,0.094,0.017,-7.396,M,4.435,238.334,
148,2015/12/07 03:00:00,0.117,0.015,-8.087,M,6.241,190.29,
149,2015/12/07 04:00:00,0.122,0.015,-7.727,M,8.242,199.094,
150,2015/12/07 05:00:00,0.23,0.015,-6.719,M,8.462,191.759,
151,2015/12/07 06:00:00,0.0,0.014,-6.937,M,9.796,183.32,
152,2015/12/07 07:00:00,0.054,0.016,-6.652,M,9.777,188.638,
153,2015/12/07 08:00:00,0.345,0.016,-5.801,M,13.4,183.683,
154,2015/12/07 09:00:00,0.299,0.016,-4.474,M,12.106,191.255,
155,2015/12/07 10:00:00,0.603,0.018,-3.882,M,11.297,187.852,
156,2015/12/07 11:00:00,0.733,0.016,-1.556,M,13.49,198.649,
157,2015/12/07 12:00:00,0.796,0.017,-0.41,M,14.74,191.598,
158,2015/12/07 13:00:00,0.758,0.017,0.119,M,9.986,176.049,
159,2015/12/07 14:00:00,0.773,0.016,1.529,M,9.761,175.157,
160,2015/12/07 15:00:00,0.737,0.016,1.437,M,7.17,198.86,
161,2015/12/07 16:00:00,0.575,0.014,0.827,M,8.347,224.869,
162,2015/12/07 17:00:00,0.553,0.015,0.772,M,10.462,254.088,
163,2015/12/07 18:00:00,0.335,0.014,0.7,M,12.64,264.625,
164,2015/12/07 19:00:00,0.79,0.014,1.852,M,15.283,280.396,
165,2015/12/07 20:00:00,0.676,0.012,1.45,M,13.634,274.329,
166,2015/12/07 21:00:00,0.412,0.014,0.965,M,12.655,274.743,
167,2015/12/07 22:00:00,0.623,0.012,0.478,M,12.294,275.78,
168,2015/12/07 23:00:00,0.209,0.012,0.099,M,11.738,274.077,
169,2015/12/08 00:00:00,0.588,0.014,-0.367,M,12.583,276.106,
170,2015/12/08 01:00:00,Z,Z,-0.421,M,13.557,266.612,
171,2015/12/08 02:00:00,0.318,0.013,-0.476,M,11.075,255.855,
172,2015/12/08 03:00:00,0.224,0.013,0.304,M,12.861,272.027,
173,2015/12/08 04:00:00,0.357,0.014,0.933,M,16.562,265.656,
174,2015/12/08 05:00:00,0.382,0.016,0.72,M,15.012,255.0,
175,2015/12/08 06:00:00,0.553,0.014,0.881,M,18.764,269.281,
176,2015/12/08 07:00:00,0.4,0.013,0.665,M,16.46,277.044,
177,2015/12/08 08:00:00,0.329,0.014,0.269,M,17.09,266.409,
178,2015/12/08 09:00:00,0.213,0.013,-0.305,M,13.208,265.249,
179,2015/12/08 10:00:00,0.15,0.011,-0.623,M,10.257,255.946,
180,2015/12/08 11:00:00,0.149,0.013,1.129,M,13.336,266.708,
181,2015/12/08 12:00:00,0.249,0.015,1.968,M,7.313,255.038,
182,2015/12/08 13:00:00,0.259,0.016,2.0,M,2.893,211.29,
183,2015/12/08 14:00:00,0.149,0.016,1.184,M,6.285,193.642,
184,2015/12/08 15:00:00,0.012,0.016,-0.011,M,6.192,175.817,
185,2015/12/08 16:00:00,0.155,0.017,-0.548,M,7.824,169.664,
186,2015/12/08 17:00:00,0.153,0.016,-0.48,M,11.167,137.776,
187,2015/12/08 18:00:00,0.378,0.017,0.098,M,13.194,130.851,
188,2015/12/08 19:00:00,0.645,1.035,0.701,M,14.608,112.541,
189,2015/12/08 20:00:00,2.905,1.517,0.849,M,15.562,110.868,
190,2015/12/08 21:00:00,6.743,0.211,0.927,M,16.035,114.726,
191,2015/12/08 22:00:00,4.116,0.131,0.806,M,10.448,108.736,
192,2015/12/08 23:00:00,0.836,0.017,-0.128,M,6.192,97.099,
193,2015/12/09 00:00:00,0.354,0.018,-0.856,M,4.705,99.832,
194,2015/12/09 01:00:00,Z,Z,-2.033,M,2.524,39.724,
195,2015/12/09 02:00:00,0.419,0.012,-2.047,M,2.087,56.678,
196,2015/12/09 03:00:00,0.08,0.011,-3.486,M,2.501,215.104,
197,2015/12/09 04:00:00,-0.027,0.013,-3.087,M,5.153,253.449,
198,2015/12/09 05:00:00,0.105,0.013,-2.684,M,9.532,267.398,
199,2015/12/09 06:00:00,0.123,0.014,-1.862,M,10.64,269.78,
200,2015/12/09 07:00:00,0.12,0.011,-2.092,M,12.166,290.254,
201,2015/12/09 08:00:00,-0.036,0.166,-1.99,M,12.722,298.179,
202,2015/12/09 09:00:00,0.149,1.174,-2.359,M,8.967,299.676,
203,2015/12/09 10:00:00,0.564,0.082,-2.698,M,6.089,277.76,
204,2015/12/09 11:00:00,0.429,0.152,-3.258,M,3.198,39.044,
205,2015/12/09 12:00:00,0.18,0.016,-2.789,M,0.116,352.607,
206,2015/12/09 13:00:00,0.098,0.017,-2.723,M,5.959,29.508,
207,2015/12/09 14:00:00,0.278,0.015,-2.649,M,4.002,76.355,
208,2015/12/09 15:00:00,0.222,0.016,-2.527,M,6.084,334.464,
209,2015/12/09 16:00:00,0.258,0.015,-2.354,M,7.394,327.995,
210,2015/12/09 17:00:00,0.4,0.334,-2.111,M,8.288,305.982,
211,2015/12/09 18:00:00,0.107,0.015,-1.99,M,10.816,326.716,
212,2015/12/09 19:00:00,-0.171,0.015,-1.617,M,13.819,344.477,
213,2015/12/09 20:00:00,-0.063,0.014,-1.42,M,16.017,341.045,
214,2015/12/09 21:00:00,0.122,0.014,-1.586,M,14.989,332.86,
215,2015/12/09 22:00:00,0.052,0.014,-1.511,M,11.984,330.683,
216,2015/12/09 23:00:00,0.061,0.013,-1.635,M,13.721,327.856,
217,2015/12/10 00:00:00,0.037,0.013,-1.729,M,13.853,331.374,
218,2015/12/10 01:00:00,Z,Z,-1.885,M,13.5,332.228,
219,2015/12/10 02:00:00,0.101,0.011,-2.034,M,14.594,330.658,
220,2015/12/10 03:00:00,0.056,0.012,-1.784,M,12.607,333.036,
221,2015/12/10 04:00:00,-0.09,0.014,-1.881,M,8.713,332.568,
222,2015/12/10 05:00:00,-0.111,0.013,-1.892,M,4.26,357.463,
223,2015/12/10 06:00:00,0.126,0.015,-1.922,M,2.15,12.276,
224,2015/12/10 07:00:00,0.11,0.016,-1.812,M,1.88,328.335,
225,2015/12/10 08:00:00,0.188,0.016,-1.814,M,2.486,198.122,
226,2015/12/10 09:00:00,0.14,0.016,-1.959,M,6.011,197.325,
227,2015/12/10 10:00:00,-0.007,0.017,-2.09,M,8.264,189.422,
228,2015/12/10 11:00:00,-0.119,0.015,-2.209,M,7.223,174.442,
229,2015/12/10 12:00:00,-0.033,0.015,-2.173,M,8.745,167.989,
230,2015/12/10 13:00:00,0.028,0.015,-2.095,M,10.571,146.259,
231,2015/12/10 14:00:00,0.397,0.016,-2.375,M,10.215,130.342,
232,2015/12/10 15:00:00,0.087,0.015,-2.613,M,11.984,140.22,
233,2015/12/10 16:00:00,0.183,0.015,-2.813,M,13.068,138.27,
234,2015/12/10 17:00:00,0.27,0.017,-2.895,M,13.52,133.288,
235,2015/12/10 18:00:00,0.611,0.016,-2.996,M,12.896,137.646,
236,2015/12/10 19:00:00,0.218,0.016,-2.979,M,13.738,146.211,
237,2015/12/10 20:00:00,0.167,0.016,-3.044,M,17.066,133.652,
238,2015/12/10 21:00:00,0.014,0.017,-3.315,M,20.34,132.14,
239,2015/12/10 22:00:00,0.106,0.016,-3.55,M,13.64,135.746,
240,2015/12/10 23:00:00,0.2,0.017,-3.054,M,13.968,145.625,
241,2015/12/11 00:00:00,0.163,0.017,-2.595,M,14.661,142.645,
242,2015/12/11 01:00:00,Z,Z,-2.409,M,12.197,140.261,
243,2015/12/11 02:00:00,0.778,0.019,-2.272,M,17.163,123.101,
244,2015/12/11 03:00:00,2.787,0.018,-2.449,M,18.695,126.296,
245,2015/12/11 04:00:00,1.456,0.016,-3.045,M,22.686,123.336,
246,2015/12/11 05:00:00,2.524,0.017,-3.571,M,23.796,122.891,
247,2015/12/11 06:00:00,3.757,0.017,-4.088,M,24.137,123.892,
248,2015/12/11 07:00:00,1.993,0.125,-4.53,M,17.903,119.411,
249,2015/12/11 08:00:00,5.11,0.069,-5.249,M,16.511,117.877,
250,2015/12/11 09:00:00,2.224,0.217,-6.18,M,14.217,110.363,
251,2015/12/11 10:00:00,0.983,0.046,-6.848,M,14.736,104.712,
252,2015/12/11 11:00:00,3.605,0.042,-6.982,M,14.336,109.897,
253,2015/12/11 12:00:00,2.071,0.087,-6.772,M,14.357,111.434,
254,2015/12/11 13:00:00,2.037,0.016,-6.7,M,15.527,120.218,
255,2015/12/11 14:00:00,1.45,0.016,-6.546,M,14.686,106.701,
256,2015/12/11 15:00:00,1.873,0.029,-6.555,M,16.053,104.994,
257,2015/12/11 16:00:00,1.188,0.016,-6.585,M,14.667,106.202,
258,2015/12/11 17:00:00,2.541,0.016,-6.776,M,14.814,121.117,
259,2015/12/11 18:00:00,3.914,0.016,-7.004,M,15.418,122.724,
260,2015/12/11 19:00:00,5.239,0.015,-7.141,M,14.593,123.301,
261,2015/12/11 20:00:00,2.251,0.014,-7.212,M,11.098,112.254,
262,2015/12/11 21:00:00,2.888,0.014,-7.39,M,12.047,118.834,
263,2015/12/11 22:00:00,4.011,0.016,-7.401,M,11.696,123.919,
264,2015/12/11 23:00:00,3.485,0.015,-7.497,M,10.105,111.281,
265,2015/12/12 00:00:00,6.515,0.016,-7.745,M,12.162,119.463,
266,2015/12/12 01:00:00,Z,Z,-7.831,M,13.076,134.364,
267,2015/12/12 02:00:00,0.214,0.016,-7.668,M,12.897,132.671,
268,2015/12/12 03:00:00,0.206,0.013,-7.422,M,9.834,146.672,
269,2015/12/12 04:00:00,-0.043,0.014,-7.236,M,8.498,140.232,
270,2015/12/12 05:00:00,-0.086,0.015,-7.452,M,8.894,138.451,
271,2015/12/12 06:00:00,-0.006,0.016,-7.396,M,8.752,137.017,
272,2015/12/12 07:00:00,0.018,0.014,-7.28,M,8.44,135.609,
273,2015/12/12 08:00:00,-0.042,0.017,-7.134,M,8.679,142.793,
274,2015/12/12 09:00:00,0.064,0.017,-7.073,M,8.77,134.607,
275,2015/12/12 10:00:00,0.118,0.016,-6.775,M,8.825,133.644,
276,2015/12/12 11:00:00,0.085,0.016,-6.337,M,9.308,139.373,
277,2015/12/12 12:00:00,0.052,0.017,-5.897,M,11.15,131.82,
278,2015/12/12 13:00:00,0.042,0.017,-5.413,M,9.988,130.845,
279,2015/12/12 14:00:00,0.029,0.016,-4.947,M,9.549,137.263,
280,2015/12/12 15:00:00,0.017,0.016,-5.216,M,12.236,131.174,
281,2015/12/12 16:00:00,-0.018,0.016,-5.357,M,14.436,132.277,
282,2015/12/12 17:00:00,0.287,0.016,-5.178,M,13.63,130.338,
283,2015/12/12 18:00:00,-0.032,0.017,-5.283,M,15.414,132.437,
284,2015/12/12 19:00:00,0.227,0.018,-5.513,M,16.793,132.173,
285,2015/12/12 20:00:00,0.131,0.017,-5.493,M,16.638,133.541,
286,2015/12/12 21:00:00,-0.155,0.017,-5.559,M,18.803,131.923,
287,2015/12/12 22:00:00,0.099,0.019,-5.593,M,20.124,130.916,
288,2015/12/12 23:00:00,0.344,0.017,-5.694,M,20.956,130.71,
289,2015/12/13 00:00:00,6.868,0.018,-5.837,M,16.501,125.193,
290,2015/12/13 01:00:00,Z,Z,-5.537,M,13.336,127.015,
291,2015/12/13 02:00:00,12.84,0.54,-5.267,M,12.259,119.96,
292,2015/12/13 03:00:00,4.955,0.746,-5.227,M,10.903,108.115,
293,2015/12/13 04:00:00,1.826,0.024,-4.825,M,10.338,105.781,
294,2015/12/13 05:00:00,2.544,0.213,-4.508,M,9.8,105.222,
295,2015/12/13 06:00:00,5.049,0.092,-4.338,M,10.947,118.159,
296,2015/12/13 07:00:00,1.643,0.016,-4.215,M,11.018,128.453,
297,2015/12/13 08:00:00,0.604,0.017,-4.064,M,9.531,132.314,
298,2015/12/13 09:00:00,1.315,0.018,-4.326,M,9.605,126.116,
299,2015/12/13 10:00:00,2.08,0.051,-4.083,M,7.787,103.962,
300,2015/12/13 11:00:00,2.718,0.062,-4.073,M,7.045,110.903,
301,2015/12/13 12:00:00,2.565,0.043,-3.707,M,6.791,119.393,
302,2015/12/13 13:00:00,2.653,0.392,-3.002,M,6.922,104.956,
303,2015/12/13 14:00:00,1.314,0.017,-2.57,M,6.9,103.384,
304,2015/12/13 15:00:00,0.741,0.062,-3.277,M,7.261,105.049,
305,2015/12/13 16:00:00,0.564,0.024,-3.652,M,6.502,104.521,
306,2015/12/13 17:00:00,0.521,0.024,-3.892,M,5.819,102.09,
307,2015/12/13 18:00:00,0.436,0.015,-3.344,M,4.734,84.306,
308,2015/12/13 19:00:00,0.335,0.014,-3.278,M,3.755,79.922,
309,2015/12/13 20:00:00,0.246,0.015,-2.817,M,3.719,61.244,
310,2015/12/13 21:00:00,0.205,0.016,-3.415,M,3.019,59.591,
311,2015/12/13 22:00:00,0.294,0.014,-3.368,M,2.733,56.316,
312,2015/12/13 23:00:00,0.344,0.014,-2.938,M,3.031,27.101,
313,2015/12/14 00:00:00,0.256,0.015,-3.151,M,3.193,15.917,
314,2015/12/14 01:00:00,Z,Z,-3.323,M,3.486,6.174,
315,2015/12/14 02:00:00,-0.037,0.017,-3.629,M,3.108,359.218,
316,2015/12/14 03:00:00,-0.031,0.014,-4.304,M,3.383,338.957,
317,2015/12/14 04:00:00,0.049,0.013,-4.312,M,2.734,339.411,
318,2015/12/14 05:00:00,-0.065,0.013,-4.349,M,2.797,334.244,
319,2015/12/14 06:00:00,-0.17,0.014,-4.274,M,3.655,336.855,
320,2015/12/14 07:00:00,0.024,0.015,-3.806,M,3.127,352.726,
321,2015/12/14 08:00:00,0.027,0.016,-4.079,M,2.891,346.216,
322,2015/12/14 09:00:00,-0.219,0.015,-4.613,M,3.418,332.376,
323,2015/12/14 10:00:00,-0.159,0.014,-4.656,M,3.264,334.24,
324,2015/12/14 11:00:00,0.01,0.014,-4.321,M,2.867,332.771,
325,2015/12/14 12:00:00,-0.045,0.017,-4.106,M,3.749,320.197,
326,2015/12/14 13:00:00,1.077,0.013,-4.265,M,4.636,314.172,
327,2015/12/14 14:00:00,1.263,0.018,-4.277,M,5.028,314.165,
328,2015/12/14 15:00:00,0.658,0.015,-4.332,M,5.42,311.581,
329,2015/12/14 16:00:00,0.0,0.016,-4.575,M,3.812,320.89,
330,2015/12/14 17:00:00,0.662,0.013,-4.56,M,2.799,301.736,
331,2015/12/14 18:00:00,0.963,0.014,-4.541,M,3.421,300.725,
332,2015/12/14 19:00:00,0.026,0.014,-4.928,M,5.559,278.664,
333,2015/12/14 20:00:00,-0.051,0.013,-5.347,M,5.948,273.007,
334,2015/12/14 21:00:00,-0.111,0.013,-5.938,M,5.874,271.416,
335,2015/12/14 22:00:00,-0.068,0.012,-6.13,M,5.694,263.814,
336,2015/12/14 23:00:00,-0.036,0.014,-6.299,M,4.566,249.592,
337,2015/12/15 00:00:00,0.086,0.015,-6.379,M,4.266,240.801,
338,2015/12/15 01:00:00,Z,Z,-6.354,M,4.363,238.428,
339,2015/12/15 02:00:00,0.001,0.016,-6.571,M,3.916,227.941,
340,2015/12/15 03:00:00,0.105,0.015,-6.791,M,3.651,224.528,
341,2015/12/15 04:00:00,-0.03,0.015,-6.835,M,2.864,188.511,
342,2015/12/15 05:00:00,0.211,0.016,-8.159,M,3.842,213.454,
343,2015/12/15 06:00:00,0.543,0.015,-10.04,M,4.724,220.364,
344,2015/12/15 07:00:00,1.034,0.016,-9.199,M,3.9,201.063,
345,2015/12/15 08:00:00,1.043,0.015,-8.736,M,4.684,202.481,
346,2015/12/15 09:00:00,0.45,0.016,-9.002,M,4.35,196.146,
347,2015/12/15 10:00:00,0.644,0.015,-9.307,M,4.854,189.489,
348,2015/12/15 11:00:00,0.628,0.014,-8.815,M,4.99,193.949,
349,2015/12/15 12:00:00,0.915,0.015,-8.583,M,6.044,195.004,
350,2015/12/15 13:00:00,2.189,0.016,-8.4,M,5.765,207.916,
351,2015/12/15 14:00:00,2.487,0.016,-7.034,M,4.569,229.299,
352,2015/12/15 15:00:00,1.577,0.017,-6.37,M,3.603,232.974,
353,2015/12/15 16:00:00,0.524,0.017,-6.262,M,3.008,241.954,
354,2015/12/15 17:00:00,0.45,0.017,-6.689,M,3.735,260.215,
355,2015/12/15 18:00:00,0.232,0.017,-6.615,M,5.619,272.009,
356,2015/12/15 19:00:00,0.402,0.014,-5.429,M,5.425,278.106,
357,2015/12/15 20:00:00,0.345,0.014,-4.996,M,5.769,277.406,
358,2015/12/15 21:00:00,0.56,0.015,-4.863,M,5.974,283.889,
359,2015/12/15 22:00:00,0.375,0.013,-5.336,M,7.353,290.683,
360,2015/12/15 23:00:00,0.996,0.013,-5.45,M,7.959,295.105,
361,2015/12/16 00:00:00,0.569,0.014,-6.156,M,7.506,284.993,
362,2015/12/16 01:00:00,Z,Z,-7.09,M,7.519,274.146,
363,2015/12/16 02:00:00,0.022,0.014,-7.206,M,8.997,284.018,
364,2015/12/16 03:00:00,0.169,0.014,-7.132,M,8.994,282.309,
365,2015/12/16 04:00:00,0.285,0.012,-7.771,M,10.382,287.641,
366,2015/12/16 05:00:00,0.205,0.014,-8.288,M,10.988,285.57,
367,2015/12/16 06:00:00,0.443,0.014,-8.645,M,12.167,290.594,
368,2015/12/16 07:00:00,0.125,0.014,-9.296,M,13.365,286.88,
369,2015/12/16 08:00:00,0.05,0.014,-10.064,M,14.172,291.287,
370,2015/12/16 09:00:00,0.218,0.014,-10.651,M,12.732,292.53,
371,2015/12/16 10:00:00,0.392,0.014,-10.835,M,13.895,291.025,
372,2015/12/16 11:00:00,0.245,0.015,-10.295,M,16.353,298.652,
373,2015/12/16 12:00:00,0.179,0.013,-9.74,M,17.468,298.084,
374,2015/12/16 13:00:00,0.12,0.014,-9.845,M,19.432,303.082,
375,2015/12/16 14:00:00,0.278,0.015,-10.198,M,19.568,308.295,
376,2015/12/16 15:00:00,1.651,0.014,-10.848,M,20.872,314.208,
377,2015/12/16 16:00:00,0.494,0.017,-11.758,M,17.133,307.684,
378,2015/12/16 17:00:00,-0.013,0.014,-12.18,M,17.9,300.589,
379,2015/12/16 18:00:00,0.218,0.015,-12.455,M,16.934,290.567,
380,2015/12/16 19:00:00,0.075,0.015,-12.645,M,16.46,284.734,
381,2015/12/16 20:00:00,0.244,0.014,-12.523,M,18.896,289.902,
382,2015/12/16 21:00:00,0.376,0.013,-12.821,M,18.493,298.135,
383,2015/12/16 22:00:00,0.681,0.016,-12.8,M,16.114,295.259,
384,2015/12/16 23:00:00,0.067,0.016,-11.705,M,14.881,292.913,
385,2015/12/17 00:00:00,-0.007,0.017,-11.149,M,11.537,282.524,
386,2015/12/17 01:00:00,Z,Z,-10.231,M,11.442,278.468,
387,2015/12/17 02:00:00,-0.018,0.015,-9.7,M,12.793,289.258,
388,2015/12/17 03:00:00,0.381,0.014,-10.089,M,13.59,322.261,
389,2015/12/17 04:00:00,-0.096,0.015,-10.412,M,15.1,321.861,
390,2015/12/17 05:00:00,0.507,0.016,-11.825,M,18.349,315.749,
391,2015/12/17 06:00:00,1.219,0.015,-13.024,M,14.638,315.338,
392,2015/12/17 07:00:00,0.174,0.015,-12.492,M,15.118,319.895,
393,2015/12/17 08:00:00,0.406,0.016,-12.317,M,16.139,316.336,
394,2015/12/17 09:00:00,0.417,0.015,-12.762,M,19.637,317.952,